SEJ2589 VIDP-OPSD

Flight info

Callsign SEJ2589
Flight time 1h 44m
Altitude 30000
Route OROTI7E OROTI A589 ASARI DCT SULOM DCT INDEK Z306 RN/N0473F310 J186 DELDA DCT BIREB DCT SD
Aircraft B738/M-SDE2E3FGHIRWXY/LB1

Departure

Time 2026-04-29 15:23
Airport Indira Gandhi International Airport (VIDP)

Arrival

Time 2026-04-29 17:07
Airport Skardu International Airport (OPSD)
Time Latitude Longitude Altitude Speed Heading
2026-04-29 15:01 28.56682 77.10940 749 ft 0 kts 284°
2026-04-29 15:11 28.56680 77.10949 749 ft 2 kts 284°
2026-04-29 15:11 28.56676 77.10966 748 ft 3 kts 286°
2026-04-29 15:12 28.56669 77.10985 745 ft 3 kts 323°
2026-04-29 15:12 28.56659 77.10991 745 ft 3 kts 357°
2026-04-29 15:12 28.56638 77.10989 746 ft 1 kts 14°
2026-04-29 15:12 28.56634 77.10987 746 ft 0 kts 14°
2026-04-29 15:14 28.56654 77.10993 745 ft 0 kts 14°
2026-04-29 15:15 28.56657 77.10994 745 ft 1 kts 14°
2026-04-29 15:15 28.56665 77.10996 745 ft 2 kts 14°
2026-04-29 15:15 28.56681 77.11001 748 ft 3 kts 14°
2026-04-29 15:16 28.56702 77.11006 749 ft 4 kts 11°
2026-04-29 15:16 28.56730 77.11014 749 ft 4 kts 13°
2026-04-29 15:16 28.56766 77.11024 749 ft 7 kts 13°
2026-04-29 15:16 28.56828 77.11039 748 ft 11 kts 357°
2026-04-29 15:17 28.56856 77.10953 749 ft 15 kts 271°
2026-04-29 15:17 28.56859 77.10815 749 ft 20 kts 271°
2026-04-29 15:17 28.56863 77.10644 749 ft 23 kts 271°
2026-04-29 15:17 28.56867 77.10443 746 ft 27 kts 271°
2026-04-29 15:18 28.56869 77.10372 749 ft 0 kts 271°
2026-04-29 15:18 28.56869 77.10370 749 ft 2 kts 271°
2026-04-29 15:19 28.56869 77.10339 749 ft 6 kts 271°
2026-04-29 15:19 28.56871 77.10270 747 ft 11 kts 271°
2026-04-29 15:19 28.56873 77.10166 749 ft 15 kts 271°
2026-04-29 15:19 28.56876 77.10029 749 ft 19 kts 271°
2026-04-29 15:20 28.56880 77.09860 749 ft 23 kts 271°
2026-04-29 15:20 28.56884 77.09663 746 ft 26 kts 271°
2026-04-29 15:20 28.56889 77.09480 749 ft 18 kts 272°
2026-04-29 15:20 28.56892 77.09325 750 ft 22 kts 271°
2026-04-29 15:21 28.56896 77.09140 749 ft 25 kts 271°
2026-04-29 15:21 28.56903 77.08998 748 ft 15 kts 290°
2026-04-29 15:21 28.57004 77.08957 745 ft 17 kts 346°
2026-04-29 15:21 28.57049 77.08971 748 ft 3 kts 65°
2026-04-29 15:22 28.57051 77.09009 750 ft 8 kts 90°
2026-04-29 15:22 28.57045 77.09386 747 ft 88 kts 91°
2026-04-29 15:22 28.57028 77.10370 750 ft 158 kts 89°
2026-04-29 15:22 28.57007 77.11728 1350 ft 176 kts 91°
2026-04-29 15:23 28.56964 77.13135 2337 ft 177 kts 92°
2026-04-29 15:23 28.56918 77.14499 3384 ft 170 kts 92°
2026-04-29 15:23 28.56874 77.15877 3960 ft 182 kts 92°
2026-04-29 15:23 28.56824 77.17393 4420 ft 198 kts 93°
2026-04-29 15:24 28.56781 77.18984 4925 ft 209 kts 92°
2026-04-29 15:24 28.56742 77.20707 5082 ft 231 kts 92°
2026-04-29 15:24 28.56700 77.22618 5254 ft 251 kts 92°
2026-04-29 15:24 28.56654 77.24666 5486 ft 270 kts 91°
2026-04-29 15:25 28.56605 77.26869 5857 ft 284 kts 91°
2026-04-29 15:25 28.56554 77.29146 6485 ft 290 kts 91°
2026-04-29 15:25 28.56500 77.31450 7207 ft 293 kts 91°
2026-04-29 15:25 28.56445 77.33796 7829 ft 300 kts 91°
2026-04-29 15:26 28.56388 77.36197 8460 ft 306 kts 91°
2026-04-29 15:26 28.55981 77.38589 9052 ft 313 kts 117°
2026-04-29 15:26 28.54649 77.40532 9628 ft 314 kts 144°
2026-04-29 15:26 28.52754 77.41679 9656 ft 306 kts 171°
2026-04-29 15:27 28.50679 77.41775 9675 ft 296 kts 196°
2026-04-29 15:27 28.48780 77.40990 9681 ft 289 kts 215°
2026-04-29 15:27 28.47235 77.39583 9689 ft 283 kts 227°
2026-04-29 15:27 28.45807 77.38032 9681 ft 284 kts 228°
2026-04-29 15:28 28.44387 77.36463 9676 ft 285 kts 228°
2026-04-29 15:28 28.43442 77.35422 9675 ft 285 kts 228°
2026-04-29 15:28 28.41550 77.33354 9676 ft 285 kts 227°
2026-04-29 15:28 28.40114 77.31798 9675 ft 285 kts 227°
2026-04-29 15:29 28.38678 77.30246 9677 ft 285 kts 227°
2026-04-29 15:29 28.36038 77.26951 9668 ft 278 kts 248°
2026-04-29 15:30 28.34876 77.22816 9680 ft 275 kts 256°
2026-04-29 15:30 28.34534 77.21432 9686 ft 274 kts 256°
2026-04-29 15:30 28.33839 77.18656 9939 ft 276 kts 255°
2026-04-29 15:30 28.33302 77.16546 10629 ft 278 kts 255°
2026-04-29 15:31 28.32761 77.14442 11375 ft 278 kts 255°
2026-04-29 15:31 28.32394 77.13020 11878 ft 278 kts 255°
2026-04-29 15:31 28.31846 77.10900 12578 ft 281 kts 257°
2026-04-29 15:31 28.31637 77.08733 13225 ft 282 kts 276°
2026-04-29 15:32 28.32040 77.06554 13884 ft 284 kts 285°
2026-04-29 15:32 28.32600 77.04387 14489 ft 287 kts 286°
2026-04-29 15:32 28.33184 77.02198 14972 ft 297 kts 287°
2026-04-29 15:32 28.33801 76.99872 15101 ft 317 kts 286°
2026-04-29 15:33 28.34442 76.97423 15429 ft 329 kts 286°
2026-04-29 15:33 28.35091 76.94916 15964 ft 333 kts 286°
2026-04-29 15:33 28.35743 76.92382 16588 ft 335 kts 286°
2026-04-29 15:33 28.36397 76.89827 17195 ft 338 kts 286°
2026-04-29 15:34 28.37054 76.87254 17777 ft 341 kts 287°
2026-04-29 15:34 28.37717 76.84657 18297 ft 344 kts 287°
2026-04-29 15:34 28.38456 76.82075 18840 ft 344 kts 291°
2026-04-29 15:34 28.39365 76.79551 19370 ft 346 kts 293°
2026-04-29 15:35 28.40321 76.77067 19884 ft 349 kts 294°
2026-04-29 15:35 28.41302 76.74538 20411 ft 350 kts 294°
2026-04-29 15:35 28.42280 76.71990 20928 ft 353 kts 294°
2026-04-29 15:35 28.43254 76.69421 21430 ft 355 kts 293°
2026-04-29 15:36 28.44227 76.66835 21924 ft 357 kts 293°
2026-04-29 15:36 28.45201 76.64227 22397 ft 359 kts 293°
2026-04-29 15:36 28.46179 76.61603 22872 ft 362 kts 293°
2026-04-29 15:36 28.47161 76.58961 23319 ft 364 kts 293°
2026-04-29 15:37 28.48149 76.56299 23695 ft 367 kts 293°
2026-04-29 15:37 28.49144 76.53618 24049 ft 370 kts 292°
2026-04-29 15:37 28.50146 76.50915 24398 ft 373 kts 292°
2026-04-29 15:37 28.51157 76.48187 24777 ft 374 kts 292°
2026-04-29 15:38 28.52171 76.45456 25185 ft 375 kts 293°
2026-04-29 15:38 28.53218 76.42765 25517 ft 378 kts 294°
2026-04-29 15:38 28.54318 76.40032 25837 ft 382 kts 294°
2026-04-29 15:38 28.55433 76.37285 26177 ft 384 kts 294°
2026-04-29 15:39 28.56556 76.34515 26583 ft 385 kts 294°
2026-04-29 15:39 28.57676 76.31741 27000 ft 385 kts 294°
2026-04-29 15:39 28.58789 76.28973 27472 ft 384 kts 294°
2026-04-29 15:39 28.59895 76.26212 27944 ft 383 kts 294°
2026-04-29 15:40 28.61001 76.23445 28367 ft 383 kts 294°
2026-04-29 15:40 28.62105 76.20681 28798 ft 383 kts 294°
2026-04-29 15:40 28.63205 76.17922 29249 ft 382 kts 294°
2026-04-29 15:40 28.64302 76.15170 29660 ft 383 kts 294°
2026-04-29 15:41 28.65410 76.12387 29657 ft 389 kts 294°
2026-04-29 15:41 28.67635 76.06795 29689 ft 384 kts 294°
2026-04-29 15:42 28.69820 76.01294 29704 ft 381 kts 294°
2026-04-29 15:42 28.71998 75.95805 29702 ft 384 kts 294°
2026-04-29 15:43 28.74223 75.90264 29694 ft 386 kts 299°
2026-04-29 15:43 28.75831 75.87824 29715 ft 387 kts 314°
2026-04-29 15:43 28.77967 75.85944 29704 ft 390 kts 324°
2026-04-29 15:44 28.82589 75.82676 29706 ft 392 kts 326°
2026-04-29 15:44 28.87246 75.79424 29681 ft 393 kts 325°
2026-04-29 15:45 28.91883 75.76134 29700 ft 391 kts 325°
2026-04-29 15:45 28.96470 75.72849 29683 ft 387 kts 325°
2026-04-29 15:46 29.01004 75.69591 29686 ft 383 kts 324°
2026-04-29 15:46 29.05494 75.66361 29703 ft 380 kts 324°
2026-04-29 15:47 29.10001 75.63113 29707 ft 387 kts 324°
2026-04-29 15:47 29.14560 75.59826 29684 ft 389 kts 324°
2026-04-29 15:48 29.19129 75.56530 29688 ft 389 kts 324°
2026-04-29 15:48 29.23812 75.53144 29693 ft 407 kts 324°
2026-04-29 15:49 29.28434 75.49226 29678 ft 419 kts 308°
2026-04-29 15:49 29.30046 75.46435 29698 ft 423 kts 297°
2026-04-29 15:49 29.31566 75.43524 29676 ft 430 kts 307°
2026-04-29 15:49 29.33758 75.41172 29707 ft 436 kts 322°
2026-04-29 15:50 29.36417 75.39515 29675 ft 437 kts 336°
2026-04-29 15:50 29.39364 75.38686 29695 ft 437 kts 347°
2026-04-29 15:50 29.42377 75.38178 29685 ft 439 kts 348°
2026-04-29 15:51 29.48456 75.37298 29686 ft 441 kts 349°
2026-04-29 15:51 29.54514 75.36401 29689 ft 442 kts 348°
2026-04-29 15:52 29.60609 75.35445 29693 ft 443 kts 349°
2026-04-29 15:52 29.66736 75.34459 29687 ft 445 kts 348°
2026-04-29 15:53 29.72885 75.33463 29683 ft 447 kts 348°
2026-04-29 15:53 29.79031 75.32469 29680 ft 449 kts 348°
2026-04-29 15:54 29.85220 75.31467 29681 ft 449 kts 348°
2026-04-29 15:54 29.91423 75.30461 29688 ft 451 kts 349°
2026-04-29 15:55 29.97651 75.29451 29685 ft 452 kts 349°
2026-04-29 15:55 30.03873 75.28441 29688 ft 452 kts 349°
2026-04-29 15:56 30.10112 75.27426 29690 ft 452 kts 349°
2026-04-29 15:56 30.16339 75.26411 29683 ft 452 kts 349°
2026-04-29 15:57 30.22574 75.25395 29690 ft 453 kts 349°
2026-04-29 15:57 30.28778 75.24382 29687 ft 453 kts 349°
2026-04-29 15:58 30.35022 75.23361 29691 ft 453 kts 349°
2026-04-29 15:58 30.41276 75.22337 29690 ft 453 kts 349°
2026-04-29 15:59 30.47524 75.21313 29690 ft 453 kts 349°
2026-04-29 15:59 30.53773 75.20287 29690 ft 453 kts 349°
2026-04-29 16:00 30.60025 75.19259 29695 ft 453 kts 349°
2026-04-29 16:00 30.66275 75.18230 29699 ft 453 kts 349°
2026-04-29 16:01 30.72495 75.17205 29698 ft 454 kts 349°
2026-04-29 16:01 30.78681 75.15808 29695 ft 455 kts 337°
2026-04-29 16:02 30.84154 75.12052 29697 ft 463 kts 316°
2026-04-29 16:02 30.88894 75.06853 29703 ft 471 kts 314°
2026-04-29 16:03 30.93633 75.01560 29698 ft 472 kts 315°
2026-04-29 16:03 30.98405 74.96308 29696 ft 472 kts 315°
2026-04-29 16:04 31.03207 74.91063 29700 ft 472 kts 315°
2026-04-29 16:04 31.07976 74.85855 29706 ft 472 kts 315°
2026-04-29 16:05 31.12764 74.80613 29705 ft 471 kts 315°
2026-04-29 16:05 31.17539 74.75377 29711 ft 471 kts 315°
2026-04-29 16:06 31.22309 74.70138 29708 ft 470 kts 315°
2026-04-29 16:06 31.27070 74.64901 29715 ft 470 kts 315°
2026-04-29 16:07 31.31824 74.59664 29719 ft 469 kts 315°
2026-04-29 16:07 31.36676 74.54546 29718 ft 470 kts 320°
2026-04-29 16:08 31.41868 74.49887 29730 ft 470 kts 322°
2026-04-29 16:08 31.47100 74.45312 29717 ft 469 kts 321°
2026-04-29 16:09 31.52265 74.40725 29718 ft 468 kts 321°
2026-04-29 16:09 31.57425 74.36084 29721 ft 467 kts 321°
2026-04-29 16:10 31.62588 74.31418 29717 ft 468 kts 321°
2026-04-29 16:10 31.67740 74.26755 29740 ft 467 kts 321°
2026-04-29 16:11 31.72880 74.22099 29723 ft 466 kts 321°
2026-04-29 16:11 31.78012 74.17445 29729 ft 465 kts 321°
2026-04-29 16:12 31.83135 74.12792 29735 ft 465 kts 321°
2026-04-29 16:12 31.88225 74.08163 29746 ft 465 kts 321°
2026-04-29 16:13 31.93330 74.03513 29729 ft 464 kts 321°
2026-04-29 16:13 31.98421 73.98869 29728 ft 463 kts 321°
2026-04-29 16:14 32.03513 73.94217 29741 ft 463 kts 321°
2026-04-29 16:14 32.08608 73.89557 29732 ft 463 kts 321°
2026-04-29 16:15 32.13699 73.84892 29741 ft 464 kts 321°
2026-04-29 16:15 32.18796 73.80216 29733 ft 464 kts 321°
2026-04-29 16:16 32.23891 73.75535 29738 ft 464 kts 321°
2026-04-29 16:16 32.28947 73.70883 29739 ft 464 kts 321°
2026-04-29 16:17 32.34043 73.66187 29742 ft 464 kts 320°
2026-04-29 16:17 32.39127 73.61495 29739 ft 464 kts 321°
2026-04-29 16:18 32.44214 73.56793 29743 ft 464 kts 320°
2026-04-29 16:18 32.48449 73.52873 29742 ft 464 kts 320°
2026-04-29 16:19 32.53540 73.48156 29747 ft 464 kts 320°
2026-04-29 16:19 32.58623 73.43438 29761 ft 464 kts 320°
2026-04-29 16:20 32.63700 73.38718 29747 ft 464 kts 321°
2026-04-29 16:20 32.68772 73.33996 29751 ft 463 kts 321°
2026-04-29 16:21 32.73852 73.29373 29735 ft 464 kts 326°
2026-04-29 16:21 32.79730 73.26220 29754 ft 467 kts 342°
2026-04-29 16:22 32.86157 73.24892 29758 ft 470 kts 351°
2026-04-29 16:22 32.92657 73.23908 29763 ft 471 kts 351°
2026-04-29 16:23 32.99151 73.22869 29774 ft 471 kts 350°
2026-04-29 16:23 33.05652 73.21786 29772 ft 472 kts 350°
2026-04-29 16:24 33.12151 73.20696 29780 ft 471 kts 350°
2026-04-29 16:24 33.18646 73.19610 29772 ft 471 kts 350°
2026-04-29 16:25 33.25090 73.18533 29772 ft 470 kts 350°
2026-04-29 16:25 33.31567 73.17449 29785 ft 470 kts 350°
2026-04-29 16:26 33.38045 73.16363 29785 ft 470 kts 350°
2026-04-29 16:26 33.44527 73.15278 29788 ft 469 kts 350°
2026-04-29 16:27 33.50996 73.14203 29805 ft 469 kts 350°
2026-04-29 16:27 33.57465 73.13141 29821 ft 470 kts 352°
2026-04-29 16:28 33.63963 73.13468 29817 ft 474 kts 10°
2026-04-29 16:28 33.70377 73.15398 29824 ft 475 kts 12°
2026-04-29 16:29 33.76766 73.17403 29824 ft 474 kts 12°
2026-04-29 16:29 33.83169 73.19364 29837 ft 474 kts 12°
2026-04-29 16:30 33.89562 73.21293 29854 ft 474 kts 12°
2026-04-29 16:30 33.95961 73.23217 29867 ft 474 kts 12°
2026-04-29 16:31 34.02356 73.25145 29874 ft 474 kts 12°
2026-04-29 16:31 34.08741 73.27075 29886 ft 473 kts 12°
2026-04-29 16:32 34.15094 73.28998 29883 ft 473 kts 13°
2026-04-29 16:32 34.21481 73.30934 29897 ft 473 kts 13°
2026-04-29 16:33 34.31070 73.33848 29907 ft 473 kts 13°
2026-04-29 16:33 34.37457 73.35792 29908 ft 473 kts 13°
2026-04-29 16:34 34.43849 73.37741 29950 ft 474 kts 13°
2026-04-29 16:34 34.50245 73.39694 29950 ft 474 kts 13°
2026-04-29 16:35 34.56643 73.41651 29969 ft 474 kts 13°
2026-04-29 16:35 34.62999 73.43599 29994 ft 475 kts 13°
2026-04-29 16:36 34.69404 73.45564 29986 ft 475 kts 13°
2026-04-29 16:36 34.75797 73.47598 30005 ft 475 kts 18°
2026-04-29 16:37 34.81670 73.51255 30037 ft 477 kts 36°
2026-04-29 16:37 34.86017 73.55372 30060 ft 477 kts 38°
2026-04-29 16:38 34.92095 73.61234 30058 ft 477 kts 37°
2026-04-29 16:38 34.97325 73.66207 30067 ft 476 kts 37°
2026-04-29 16:39 35.02567 73.71161 30080 ft 476 kts 37°
2026-04-29 16:39 35.07805 73.76113 30060 ft 477 kts 37°
2026-04-29 16:40 35.13014 73.81049 30040 ft 477 kts 37°
2026-04-29 16:40 35.18259 73.86029 30008 ft 478 kts 38°
2026-04-29 16:41 35.23510 73.91024 30011 ft 478 kts 38°
2026-04-29 16:41 35.28757 73.96024 29990 ft 478 kts 38°
2026-04-29 16:42 35.31391 73.98538 29822 ft 480 kts 38°
2026-04-29 16:42 35.34027 74.01055 29428 ft 481 kts 38°
2026-04-29 16:42 35.36668 74.03578 29030 ft 481 kts 38°
2026-04-29 16:42 35.39273 74.06149 28610 ft 481 kts 42°
2026-04-29 16:43 35.41573 74.09120 28229 ft 481 kts 51°
2026-04-29 16:43 35.43489 74.12468 27938 ft 478 kts 60°
2026-04-29 16:43 35.45011 74.16022 27707 ft 476 kts 63°
2026-04-29 16:43 35.46500 74.19654 27456 ft 480 kts 63°
2026-04-29 16:44 35.48005 74.23333 27224 ft 484 kts 63°
2026-04-29 16:44 35.49529 74.27027 26973 ft 485 kts 62°
2026-04-29 16:44 35.51065 74.30712 26723 ft 484 kts 62°
2026-04-29 16:44 35.52603 74.34380 25938 ft 484 kts 62°
2026-04-29 16:45 35.54128 74.38007 25790 ft 467 kts 62°
2026-04-29 16:45 35.55601 74.41510 25504 ft 455 kts 62°
2026-04-29 16:45 35.57026 74.44903 25331 ft 441 kts 62°
2026-04-29 16:45 35.58411 74.48206 25147 ft 428 kts 62°
2026-04-29 16:46 35.59757 74.51419 24984 ft 417 kts 62°
2026-04-29 16:46 35.61064 74.54543 24814 ft 406 kts 62°
2026-04-29 16:46 35.62339 74.57595 24647 ft 396 kts 62°
2026-04-29 16:46 35.63584 74.60571 24483 ft 386 kts 61°
2026-04-29 16:47 35.64835 74.63399 24335 ft 377 kts 60°
2026-04-29 16:47 35.66109 74.66177 24187 ft 369 kts 59°
2026-04-29 16:47 35.67354 74.68892 24039 ft 361 kts 59°
2026-04-29 16:47 35.68566 74.71561 23892 ft 353 kts 60°
2026-04-29 16:48 35.69745 74.74172 23744 ft 345 kts 60°
2026-04-29 16:48 35.70820 74.76790 23585 ft 339 kts 71°
2026-04-29 16:48 35.71138 74.79627 23488 ft 332 kts 92°
2026-04-29 16:48 35.70714 74.82383 23383 ft 324 kts 104°
2026-04-29 16:49 35.70087 74.85022 23286 ft 319 kts 106°
2026-04-29 16:49 35.69437 74.87623 23190 ft 317 kts 106°
2026-04-29 16:49 35.68795 74.90189 23103 ft 318 kts 106°
2026-04-29 16:49 35.68148 74.92797 23009 ft 319 kts 105°
2026-04-29 16:50 35.67506 74.95411 22907 ft 319 kts 105°
2026-04-29 16:50 35.66869 74.98024 22821 ft 319 kts 105°
2026-04-29 16:50 35.66231 75.00649 22730 ft 320 kts 105°
2026-04-29 16:50 35.65596 75.03272 22628 ft 320 kts 105°
2026-04-29 16:51 35.64961 75.05896 22533 ft 320 kts 105°
2026-04-29 16:51 35.64328 75.08509 22451 ft 319 kts 105°
2026-04-29 16:51 35.63696 75.11118 22361 ft 318 kts 105°
2026-04-29 16:51 35.63062 75.13732 22255 ft 318 kts 105°
2026-04-29 16:52 35.62430 75.16337 22163 ft 317 kts 105°
2026-04-29 16:52 35.61799 75.18935 22070 ft 316 kts 106°
2026-04-29 16:52 35.61171 75.21521 21953 ft 315 kts 105°
2026-04-29 16:52 35.60546 75.24093 21852 ft 314 kts 106°
2026-04-29 16:53 35.59920 75.26660 21776 ft 312 kts 106°
2026-04-29 16:53 35.59298 75.29210 21681 ft 311 kts 106°
2026-04-29 16:53 35.58624 75.31738 21577 ft 311 kts 115°
2026-04-29 16:53 35.57376 75.33914 21302 ft 318 kts 137°
2026-04-29 16:54 35.55560 75.35515 20861 ft 324 kts 148°
2026-04-29 16:54 35.53643 75.36935 20427 ft 327 kts 149°
2026-04-29 16:54 35.51696 75.38350 20252 ft 318 kts 149°
2026-04-29 16:54 35.49860 75.39691 20130 ft 298 kts 148°
2026-04-29 16:55 35.48651 75.40582 18132 ft 0 kts 148°
2026-04-29 16:55 35.47049 75.41782 18063 ft 261 kts 148°
2026-04-29 16:55 35.45550 75.42896 17936 ft 243 kts 148°
2026-04-29 16:55 35.44146 75.43940 17710 ft 230 kts 148°
2026-04-29 16:56 35.42800 75.44944 17427 ft 223 kts 148°
2026-04-29 16:56 35.41485 75.45928 17173 ft 222 kts 148°
2026-04-29 16:56 35.40152 75.46924 16962 ft 228 kts 148°
2026-04-29 16:56 35.38781 75.47949 16716 ft 233 kts 148°
2026-04-29 16:57 35.37400 75.48982 16502 ft 232 kts 148°
2026-04-29 16:57 35.36027 75.50009 16230 ft 232 kts 148°
2026-04-29 16:57 35.34649 75.51039 15914 ft 231 kts 148°
2026-04-29 16:57 35.33409 75.52252 15551 ft 228 kts 129°
2026-04-29 16:58 35.32227 75.53605 14953 ft 238 kts 144°
2026-04-29 16:58 35.30856 75.54800 14374 ft 247 kts 144°
2026-04-29 16:58 35.29464 75.56053 13775 ft 256 kts 139°
2026-04-29 16:58 35.28315 75.57756 13105 ft 264 kts 119°
2026-04-29 16:59 35.27810 75.59921 12385 ft 269 kts 90°
2026-04-29 16:59 35.27989 75.62198 11729 ft 270 kts 81°
2026-04-29 16:59 35.28309 75.64476 11109 ft 270 kts 81°
2026-04-29 16:59 35.28715 75.66645 10870 ft 254 kts 75°
2026-04-29 17:00 35.29215 75.68639 10784 ft 230 kts 73°
2026-04-29 17:00 35.29782 75.70314 10696 ft 200 kts 61°
2026-04-29 17:00 35.30697 75.71424 10428 ft 179 kts 21°
2026-04-29 17:00 35.31877 75.71696 10215 ft 174 kts 356°
2026-04-29 17:01 35.33041 75.71319 9985 ft 176 kts 323°
2026-04-29 17:01 35.33830 75.70208 9785 ft 173 kts 302°
2026-04-29 17:01 35.34487 75.68961 9655 ft 177 kts 301°
2026-04-29 17:01 35.35087 75.67653 9613 ft 175 kts 285°
2026-04-29 17:02 35.35164 75.66205 9632 ft 170 kts 268°
2026-04-29 17:02 35.35120 75.64757 9626 ft 170 kts 267°
2026-04-29 17:02 35.35069 75.63315 9634 ft 169 kts 267°
2026-04-29 17:02 35.35015 75.61883 9630 ft 169 kts 267°
2026-04-29 17:03 35.34958 75.60441 9636 ft 170 kts 267°
2026-04-29 17:03 35.35175 75.59031 9593 ft 172 kts 302°
2026-04-29 17:03 35.35910 75.57876 9637 ft 173 kts 304°
2026-04-29 17:03 35.36570 75.56667 9639 ft 172 kts 302°
2026-04-29 17:04 35.37238 75.55451 9560 ft 173 kts 303°
2026-04-29 17:04 35.37942 75.54247 9353 ft 173 kts 306°
2026-04-29 17:04 35.38741 75.53168 9143 ft 171 kts 319°
2026-04-29 17:04 35.39756 75.52410 8878 ft 172 kts 338°
2026-04-29 17:05 35.40709 75.51614 8711 ft 167 kts 302°
2026-04-29 17:05 35.40871 75.50242 8437 ft 172 kts 247°
2026-04-29 17:05 35.39964 75.49431 8214 ft 170 kts 180°
2026-04-29 17:05 35.38831 75.49968 8206 ft 180 kts 147°
2026-04-29 17:06 35.37799 75.50844 7941 ft 179 kts 149°
2026-04-29 17:06 35.36778 75.51593 7750 ft 164 kts 151°
2026-04-29 17:06 35.35854 75.52336 7514 ft 160 kts 148°
2026-04-29 17:06 35.35208 75.52843 7425 ft 168 kts 150°
2026-04-29 17:07 35.34052 75.53748 7396 ft 116 kts 147°
2026-04-29 17:07 35.33666 75.54054 7395 ft 85 kts 147°
2026-04-29 17:07 35.33361 75.54297 7397 ft 27 kts 147°
2026-04-29 17:07 35.33309 75.54337 7398 ft 6 kts 147°
2026-04-29 17:08 35.33269 75.54351 7396 ft 6 kts 189°
2026-04-29 17:08 35.33237 75.54319 7395 ft 6 kts 233°
2026-04-29 17:08 35.33212 75.54278 7394 ft 6 kts 236°
2026-04-29 17:08 35.33190 75.54233 7395 ft 7 kts 238°
2026-04-29 17:09 35.33162 75.54180 7394 ft 6 kts 237°
2026-04-29 17:09 35.33126 75.54168 7394 ft 1 kts 160°
2026-04-29 17:09 35.33114 75.54176 7394 ft 0 kts 153°